Indianapolis Mount Comfort, IN

12:23 PM EDT on March 26, 2017 (GMT -0400)
Mount Comfort

Weather History for KMQJ - January, 2014

Change the Weather History Date:

Saturday, January 4, 2014

  Actual Average (KEYE) Record (KEYE)
Temperature  
Mean Temperature 24 °F -  
Max Temperature 37 °F 35 °F 64 °F (1998)
Min Temperature 12 °F 21 °F -5 °F (1999)
Degree Days  
Heating Degree Days 40    
Moisture  
Dew Point 16 °F    
Average Humidity 64    
Maximum Humidity 79    
Minimum Humidity 48    
Precipitation  
Precipitation 0.00 in - - ()
Sea Level Pressure  
Sea Level Pressure 30.04 in    
Wind  
Wind Speed 12 mph (South)    
Max Wind Speed 17 mph    
Max Gust Speed 24 mph    
Visibility 10 miles    
Events      
Averages and records for this station are not official NWS values.
T = Trace of Precipitation, MM = Missing Value Source: NWS Daily Summary

Daily Weather History Graph

Daily Weather History Graph

Search for Another Location

Airport or City:

Trip Planner

Search our weather history database for the weather conditions in past years. The results will help you decide how hot, cold, wet, or windy it might be!

Date:

Astronomy

Jan. 04, 2014 Rise Set
Actual Time 8:05 AM EST 5:32 PM EST
Civil Twilight 7:35 AM EST 6:02 PM EST
Nautical Twilight 7:01 AM EST 6:36 PM EST
Astronomical Twilight 6:28 AM EST 7:08 PM EST
Moon 10:10 AM EST (1/4) 9:50 PM EST (1/4)
Length of Visible Light 10h 27m
Length of Day
9h 27m
Waxing Crescent, 15% of the Moon is Illuminated
Jan 4
Waxing Crescent
Jan 7
First Quarter
Jan 15
Full
Jan 24
Last Quarter
Jan 30
New

Hourly Weather History & Observations

Time (EST) Temp. Windchill Dew Point Humidity Pressure Visibility Wind Dir Wind Speed Gust Speed Precip Events Conditions
12:15 AM 14.0 °F 0.5 °F 6.8 °F 73% 30.16 in 10.0 mi South 11.5 mph 19.6 mph N/A   Clear
12:34 AM 14.0 °F -0.2 °F 6.8 °F 73% 30.16 in 10.0 mi South 12.7 mph - N/A   Clear
12:54 AM 14.0 °F 1.2 °F 6.8 °F 73% 30.14 in 10.0 mi South 10.4 mph - N/A   Clear
1:15 AM 14.0 °F 1.2 °F 6.8 °F 73% 30.14 in 10.0 mi South 10.4 mph - N/A   Clear
1:34 AM 14.0 °F 1.2 °F 6.8 °F 73% 30.13 in 10.0 mi South 10.4 mph - N/A   Clear
1:54 AM 14.0 °F -0.8 °F 6.8 °F 73% 30.13 in 10.0 mi South 13.8 mph 18.4 mph N/A   Clear
2:15 AM 14.0 °F 1.2 °F 6.8 °F 73% 30.12 in 10.0 mi South 10.4 mph - N/A   Clear
2:34 AM 12.2 °F -1.8 °F 6.8 °F 79% 30.12 in 10.0 mi South 11.5 mph - N/A   Clear
2:54 AM 14.0 °F -0.8 °F 6.8 °F 73% 30.11 in 10.0 mi South 13.8 mph - N/A   Clear
3:15 AM 14.0 °F -1.4 °F 8.6 °F 79% 30.10 in 10.0 mi South 15.0 mph 19.6 mph N/A   Clear
3:34 AM 15.8 °F 1.4 °F 8.6 °F 73% 30.10 in 10.0 mi South 13.8 mph 19.6 mph N/A   Clear
3:54 AM 15.8 °F 0.9 °F 8.6 °F 73% 30.10 in 10.0 mi South 15.0 mph - N/A   Clear
4:15 AM 14.0 °F 1.2 °F 8.6 °F 79% 30.10 in 10.0 mi South 10.4 mph - N/A   Clear
4:34 AM 14.0 °F 0.5 °F 8.6 °F 79% 30.10 in 10.0 mi South 11.5 mph - N/A   Clear
4:54 AM 15.8 °F 1.4 °F 8.6 °F 73% 30.09 in 10.0 mi South 13.8 mph 18.4 mph N/A   Clear
5:14 AM 15.8 °F 2.1 °F 8.6 °F 73% 30.08 in 10.0 mi South 12.7 mph - N/A   Clear
5:34 AM 15.8 °F 0.9 °F 8.6 °F 73% 30.07 in 10.0 mi South 15.0 mph 18.4 mph N/A   Clear
5:55 AM 15.8 °F 1.4 °F 8.6 °F 73% 30.07 in 10.0 mi South 13.8 mph 18.4 mph N/A   Clear
6:14 AM 15.8 °F 1.4 °F 8.6 °F 73% 30.06 in 10.0 mi South 13.8 mph - N/A   Clear
6:34 AM 15.8 °F -0.2 °F 8.6 °F 73% 30.05 in 10.0 mi South 17.3 mph 21.9 mph N/A   Clear
6:55 AM 15.8 °F 1.4 °F 8.6 °F 73% 30.05 in 10.0 mi South 13.8 mph 21.9 mph N/A   Clear
7:14 AM 17.6 °F 2.7 °F 8.6 °F 68% 30.05 in 10.0 mi South 16.1 mph 21.9 mph N/A   Clear
7:34 AM 17.6 °F 3.7 °F 8.6 °F 68% 30.05 in 10.0 mi South 13.8 mph 20.7 mph N/A   Clear
7:55 AM 17.6 °F 3.7 °F 10.4 °F 73% 30.05 in 10.0 mi South 13.8 mph 19.6 mph N/A   Clear
8:14 AM 17.6 °F 3.2 °F 10.4 °F 73% 30.06 in 10.0 mi South 15.0 mph 20.7 mph N/A   Clear
8:34 AM 19.4 °F 6.0 °F 10.4 °F 68% 30.06 in 10.0 mi South 13.8 mph 20.7 mph N/A   Clear
8:55 AM 19.4 °F 5.5 °F 10.4 °F 68% 30.05 in 10.0 mi South 15.0 mph 21.9 mph N/A   Clear
9:14 AM 21.2 °F 8.3 °F 12.2 °F 68% 30.05 in 10.0 mi South 13.8 mph 24.2 mph N/A   Clear
9:34 AM 23.0 °F 9.6 °F 12.2 °F 63% 30.05 in 10.0 mi South 16.1 mph 21.9 mph N/A   Clear
9:55 AM 24.8 °F 11.9 °F 14.0 °F 64% 30.06 in 10.0 mi SSW 16.1 mph - N/A   Clear
10:14 AM 24.8 °F 11.5 °F 14.0 °F 64% 30.05 in 10.0 mi South 17.3 mph 21.9 mph N/A   Clear
10:34 AM 26.6 °F 16.2 °F 14.0 °F 59% 30.06 in 10.0 mi South 11.5 mph - N/A   Clear
10:55 AM 26.6 °F 16.2 °F 14.0 °F 59% 30.06 in 10.0 mi SSW 11.5 mph 18.4 mph N/A   Clear
11:14 AM 28.4 °F 18.5 °F 15.8 °F 59% 30.06 in 10.0 mi SSW 11.5 mph 18.4 mph N/A   Clear
11:34 AM 28.4 °F 18.0 °F 15.8 °F 59% 30.05 in 10.0 mi SSW 12.7 mph 23.0 mph N/A   Clear
11:55 AM 30.2 °F 19.3 °F 15.8 °F 55% 30.04 in 10.0 mi SSW 15.0 mph 18.4 mph N/A   Clear
12:14 PM 30.2 °F 19.8 °F 15.8 °F 55% 30.04 in 10.0 mi SSW 13.8 mph 17.3 mph N/A   Clear
12:34 PM 32.0 °F 23.0 °F 17.6 °F 55% 30.03 in 10.0 mi SSW 11.5 mph - N/A   Clear
12:54 PM 32.0 °F 23.0 °F 17.6 °F 55% 30.01 in 10.0 mi SSW 11.5 mph 17.3 mph N/A   Clear
1:14 PM 33.8 °F 23.5 °F 17.6 °F 52% 30.01 in 10.0 mi SSW 16.1 mph - N/A   Clear
1:35 PM 33.8 °F 23.9 °F 17.6 °F 52% 30.00 in 10.0 mi SSW 15.0 mph 18.4 mph N/A   Clear
1:54 PM 33.8 °F 24.8 °F 17.6 °F 52% 29.99 in 10.0 mi SSW 12.7 mph 17.3 mph N/A   Clear
2:14 PM 35.6 °F 26.2 °F 19.4 °F 52% 29.99 in 10.0 mi SSW 15.0 mph 19.6 mph N/A   Clear
2:35 PM 37.4 °F 28.9 °F 19.4 °F 48% 29.98 in 10.0 mi SSW 13.8 mph 20.7 mph N/A   Clear
2:54 PM 37.4 °F 28.2 °F 19.4 °F 48% 29.98 in 10.0 mi SSW 16.1 mph 21.9 mph N/A   Clear
3:14 PM 37.4 °F 28.2 °F 19.4 °F 48% 29.98 in 10.0 mi SSW 16.1 mph 19.6 mph N/A   Clear
3:35 PM 37.4 °F 30.3 °F 19.4 °F 48% 29.99 in 10.0 mi SSW 10.4 mph 19.6 mph N/A   Clear
3:54 PM 37.4 °F 29.8 °F 19.4 °F 48% 29.99 in 10.0 mi SSW 11.5 mph - N/A   Clear
4:14 PM 35.6 °F 28.6 °F 21.2 °F 56% 29.99 in 10.0 mi South 9.2 mph - N/A   Scattered Clouds
4:35 PM 35.6 °F 28.6 °F 21.2 °F 56% 29.99 in 10.0 mi South 9.2 mph - N/A   Clear
4:54 PM 35.6 °F 29.2 °F 21.2 °F 56% 29.99 in 10.0 mi South 8.1 mph - N/A   Mostly Cloudy
5:14 PM 35.6 °F 29.9 °F 21.2 °F 56% 29.99 in 10.0 mi South 6.9 mph - N/A   Overcast
5:35 PM 33.8 °F 27.7 °F 23.0 °F 65% 29.99 in 10.0 mi SSE 6.9 mph - N/A   Overcast
5:54 PM 33.8 °F 27.0 °F 23.0 °F 65% 29.98 in 10.0 mi South 8.1 mph - N/A   Overcast
6:14 PM 33.8 °F 27.0 °F 23.0 °F 65% 29.99 in 10.0 mi South 8.1 mph - N/A   Overcast
6:34 PM 33.8 °F 27.7 °F 23.0 °F 65% 29.99 in 10.0 mi South 6.9 mph - N/A   Overcast
6:54 PM 33.8 °F 27.7 °F 23.0 °F 65% 30.00 in 10.0 mi South 6.9 mph - N/A   Overcast
7:15 PM 33.8 °F 26.4 °F 23.0 °F 65% 30.01 in 10.0 mi South 9.2 mph - N/A   Overcast
7:34 PM 35.6 °F 28.0 °F 23.0 °F 60% 30.01 in 10.0 mi South 10.4 mph - N/A   Overcast
7:54 PM 35.6 °F 28.6 °F 23.0 °F 60% 30.01 in 10.0 mi South 9.2 mph - N/A   Overcast
8:15 PM 35.6 °F 29.2 °F 23.0 °F 60% 30.02 in 10.0 mi South 8.1 mph - N/A   Overcast
8:34 PM 35.6 °F 30.7 °F 23.0 °F 60% 30.02 in 10.0 mi South 5.8 mph - N/A   Overcast
8:54 PM 35.6 °F 29.9 °F 23.0 °F 60% 30.02 in 10.0 mi South 6.9 mph - N/A   Overcast
9:15 PM 35.6 °F 30.7 °F 23.0 °F 60% 30.02 in 10.0 mi South 5.8 mph - N/A   Overcast
9:34 PM 33.8 °F 28.6 °F 23.0 °F 65% 30.02 in 10.0 mi South 5.8 mph - N/A   Overcast
9:54 PM 33.8 °F 27.7 °F 23.0 °F 65% 30.01 in 10.0 mi South 6.9 mph - N/A   Overcast
10:15 PM 35.6 °F 30.7 °F 23.0 °F 60% 30.01 in 10.0 mi South 5.8 mph - N/A   Overcast
10:34 PM 35.6 °F 29.9 °F 23.0 °F 60% 30.02 in 10.0 mi South 6.9 mph - N/A   Overcast
10:54 PM 35.6 °F 30.7 °F 23.0 °F 60% 30.02 in 10.0 mi South 5.8 mph - N/A   Overcast
11:14 PM 35.6 °F 30.7 °F 23.0 °F 60% 30.01 in 10.0 mi South 5.8 mph - N/A   Overcast
11:34 PM 35.6 °F 30.7 °F 23.0 °F 60% 30.01 in 10.0 mi South 5.8 mph - N/A   Scattered Clouds
11:54 PM 35.6 °F 30.7 °F 23.0 °F 60% 30.01 in 10.0 mi South 5.8 mph - N/A   Clear